OPTUS D1

Last updated on Thu Oct 30 2025 00:02:47 GMT+0000 (Coordinated Universal Time)

1 29495U 06043B 25302.43100249 -.00000171 00000+0 00000+0 0 9995 2 29495 2.4349 82.5130 0003749 136.2413 126.4541 1.00271245 69803
UTC large
Height (km)
Speed (km/s)
/
Latitude / Longitude
Inclination (degrees)
Orbital Period (minutes)
Azimuth
Elevation
Range (km)
Doppler Factor

Next 0 passes for location: London (51.5072 / 0.1276)

Sorry there are no passes over London.